Flag for Norway Weather past 2 weeks in Lørenskog, Norway

Now
59 °F

Cool.


Feels Like: 59 °F
Forecast: 48 / 68 °F
Wind: 2 mph from Southwest

Location: Oslo-Blindern

Current Time: Aug 30, 2015 at 10:18:08 AM

Latest Report: Aug 30, 2015 at 9:00 AM


Visibility: N/A

Pressure: 30.04 "Hg

Humidity: 82%

Dew point: 53 °F

Location of LørenskogLocation

Historic Weather in Lørenskog — Graph

°F

Lørenskog temperature yesterday

Maximum temperature yesterday: 68 °F (at 2:00 PM)
Minimum temperature yesterday: 47 °F (at 6:00 AM)
Average temperature yesterday: 59 °F

Past Weeks' High & Low Weather Summary

 TemperatureHumidityPressure
High77 °F (Aug 23, 5:00 PM)98% (Aug 28, 1:00 AM)30.37 "Hg (Aug 28, 1:00 AM)
Low47 °F (Aug 29, 6:00 AM)33% (Aug 22, 4:00 PM)29.47 "Hg (Aug 27, 5:00 PM)
Average63 °F67%30.05 "Hg
* Reported Aug 15 9:00 AM — Aug 30 9:00 AM, Lørenskog, Weather by CustomWeather, © 2015

Note: Actual official high and low records may vary slightly from our data, if they occured in-between our weather recording intervals... More about our weather records

Advertising

Lørenskog weather history for previous 24 hours

 ConditionsComfort  
Time TempWeatherWind HumidityBarometerVisibility
9:00 AM
Sun, Aug 30
59 °FCool.2 mph82%30.04 "HgN/A
8:00 AM55 °FPassing clouds.1 mph90%30.03 "Hg47 mi
7:00 AM51 °FCool.1 mph96%30.02 "HgN/A
6:00 AM51 °FCool.1 mph94%30.01 "HgN/A
5:00 AM54 °FPassing clouds.1 mph91%30.01 "Hg47 mi
4:00 AM55 °FCool.2 mph91%30.01 "HgN/A
3:00 AM55 °FCool.2 mph89%30.01 "HgN/A
2:00 AM56 °FOvercast.1 mph89%30.00 "Hg47 mi
1:00 AM57 °FCool.2 mph88%30.00 "HgN/A
12:00 AM58 °FCool.3 mph86%30.01 "HgN/A
10:00 PM
Sat, Aug 29
60 °FCool.3 mph82%30.00 "HgN/A
9:00 PM60 °FCool.3 mph80%29.99 "HgN/A
8:00 PM61 °FPartly sunny.5 mph71%29.98 "Hg37 mi
7:00 PM62 °FMild.6 mph66%29.99 "HgN/A
6:00 PM64 °FMild.3 mph63%29.99 "HgN/A
5:00 PM65 °FScattered clouds.6 mph58%29.99 "Hg43 mi
4:00 PM65 °FMild.6 mph51%29.99 "HgN/A
2:00 PM68 °FPartly sunny.6 mph47%29.99 "Hg43 mi
11:00 AM65 °FPassing clouds.3 mph60%29.97 "Hg47 mi
10:00 AM62 °FMild.3 mph62%29.97 "HgN/A
Weather by CustomWeather, © 2015

See weather overviewHow to use our weather pages